(2021 GT1) |
Classification: Amor [NEO] SPK-ID: 54134935 |
[ hide orbit diagram ]
For accurate long-term ephemerides, please instead use our Horizons system.This orbit viewer was implemented using two-body methods, and hence should not be used for determining accurate long-term trajectories (over several years or decades) or planetary encounter circumstances.
Orbital Elements at Epoch 2459200.5 (2020-Dec-17.0) TDB
Reference: JPL 7 (heliocentric ecliptic J2000)
Element | Value | Uncertainty (1-sigma) | Units |
e | .4318691196907254 | 0.00042334 | |
a | 1.811081899215082 | 0.0013899 | au |
q | 1.028931553713258 | 2.294e-05 | au |
i | 1.271134932146226 | 0.0010041 | deg |
node | 341.878324740667 | 0.0029969 | deg |
peri | 221.2652658642448 | 0.0056766 | deg |
M | 312.8142322876892 | 0.053495 | deg |
tp | 2459317.184746383624 (2021-Apr-12.68474638) | 0.0020436 | TDB |
period | 890.2368390870746 2.44 | 1.0248 0.002806 | d yr |
n | .4043867701197076 | 0.00046552 | deg/d |
Q | 2.593232244716907 | 0.0019902 | au |
|
| | Orbit Determination Parameters
Additional Information
|
[ show covariance matrix ]
Physical Parameter Table
Parameter |
Symbol |
Value |
Units |
Sigma |
Reference |
Notes |
absolute magnitude |
H |
25.889 |
|
.37989 |
7 |
autocmod 2.9c |
|
[ show close-approach data ]
|